Year,Month,Day,Hour,Minute,Value (Times are PST for temperature in C)
2007,07,01,00,00,11.30
2007,07,01,00,01,11.30
2007,07,01,00,02,11.30
2007,07,01,00,03,11.20
2007,07,01,00,04,11.20
2007,07,01,00,05,11.20
2007,07,01,00,06,11.20
2007,07,01,00,07,11.20
2007,07,01,00,08,11.20
2007,07,01,00,09,11.10
2007,07,01,00,10,11.10
2007,07,01,00,11,11.00
2007,07,01,00,12,10.90
2007,07,01,00,13,10.90
2007,07,01,00,14,10.80
2007,07,01,00,15,10.80
2007,07,01,00,16,10.70
2007,07,01,00,17,10.70
2007,07,01,00,18,10.60
2007,07,01,00,19,10.60
2007,07,01,00,20,10.60
2007,07,01,00,21,10.50
2007,07,01,00,22,10.50
2007,07,01,00,23,10.50
2007,07,01,00,24,10.50
2007,07,01,00,25,10.50
2007,07,01,00,26,10.50
2007,07,01,00,27,10.60
2007,07,01,00,28,10.60
2007,07,01,00,29,10.70
2007,07,01,00,30,10.70
2007,07,01,00,31,10.70
2007,07,01,00,32,10.70
2007,07,01,00,33,10.80
2007,07,01,00,34,10.80
2007,07,01,00,35,10.80
2007,07,01,00,36,10.80
2007,07,01,00,37,10.80
2007,07,01,00,38,10.80
2007,07,01,00,39,10.80
2007,07,01,00,40,10.80
2007,07,01,00,41,10.80
2007,07,01,00,42,10.90
2007,07,01,00,43,10.90
2007,07,01,00,44,10.90
2007,07,01,00,45,10.90
2007,07,01,00,46,10.90
2007,07,01,00,47,10.80
2007,07,01,00,48,10.80
2007,07,01,00,49,10.80
2007,07,01,00,50,10.80
2007,07,01,00,51,10.80
2007,07,01,00,52,10.70
2007,07,01,00,53,10.70
2007,07,01,00,54,10.70
2007,07,01,00,55,10.70
2007,07,01,00,56,10.60
2007,07,01,00,57,10.60
2007,07,01,00,58,10.60
2007,07,01,00,59,10.60
2007,07,01,01,00,10.60
2007,07,01,01,01,10.60
2007,07,01,01,02,10.50
2007,07,01,01,03,10.50
2007,07,01,01,04,10.40
2007,07,01,01,05,10.40
2007,07,01,01,06,10.40
2007,07,01,01,07,10.40
2007,07,01,01,08,10.30
2007,07,01,01,09,10.30
2007,07,01,01,10,10.30
2007,07,01,01,11,10.30
2007,07,01,01,12,10.30
2007,07,01,01,13,10.30
2007,07,01,01,14,10.30
2007,07,01,01,15,10.20
2007,07,01,01,16,10.20
2007,07,01,01,17,10.20
2007,07,01,01,18,10.20
2007,07,01,01,19,10.20
2007,07,01,01,20,10.20
2007,07,01,01,21,10.20
2007,07,01,01,22,10.20
2007,07,01,01,23,10.20
2007,07,01,01,24,10.10
2007,07,01,01,25,10.20
2007,07,01,01,26,10.20
2007,07,01,01,27,10.20
2007,07,01,01,28,10.10
2007,07,01,01,29,10.10
2007,07,01,01,30,10.10
2007,07,01,01,31,10.10
2007,07,01,01,32,10.10
2007,07,01,01,33,10.10
2007,07,01,01,34,10.10
2007,07,01,01,35,10.00
2007,07,01,01,36,10.00
2007,07,01,01,37,10.00
2007,07,01,01,38,9.90
2007,07,01,01,39,9.90
2007,07,01,01,40,9.90
2007,07,01,01,41,9.90
2007,07,01,01,42,9.80
2007,07,01,01,43,9.80
2007,07,01,01,44,9.80
2007,07,01,01,45,9.80
2007,07,01,01,46,9.80
2007,07,01,01,47,9.80
2007,07,01,01,48,9.80
2007,07,01,01,49,9.70
2007,07,01,01,50,9.70
2007,07,01,01,51,9.70
2007,07,01,01,52,9.70
2007,07,01,01,53,9.70
2007,07,01,01,54,9.70
2007,07,01,01,55,9.70
2007,07,01,01,56,9.70
2007,07,01,01,57,9.60
2007,07,01,01,58,9.70
2007,07,01,01,59,9.70
2007,07,01,02,00,9.70
2007,07,01,02,01,9.70
2007,07,01,02,02,9.70
2007,07,01,02,03,9.70
2007,07,01,02,04,9.70
2007,07,01,02,05,9.70
2007,07,01,02,06,9.80
2007,07,01,02,07,9.80
2007,07,01,02,08,9.80
2007,07,01,02,09,9.80
2007,07,01,02,10,9.80
2007,07,01,02,11,9.90
2007,07,01,02,12,9.90
2007,07,01,02,13,9.90
2007,07,01,02,14,9.90
2007,07,01,02,15,9.90
2007,07,01,02,16,9.90
2007,07,01,02,17,9.90
2007,07,01,02,18,9.90
2007,07,01,02,19,9.90
2007,07,01,02,20,9.90
2007,07,01,02,21,9.80
2007,07,01,02,22,9.80
2007,07,01,02,23,9.80
2007,07,01,02,24,9.80
2007,07,01,02,25,9.70
2007,07,01,02,26,9.70
2007,07,01,02,27,9.70
2007,07,01,02,28,9.70
2007,07,01,02,29,9.70
2007,07,01,02,30,9.60
2007,07,01,02,31,9.60
2007,07,01,02,32,9.60
2007,07,01,02,33,9.60
2007,07,01,02,34,9.60
2007,07,01,02,35,9.60
2007,07,01,02,36,9.60
2007,07,01,02,37,9.60
2007,07,01,02,38,9.60
2007,07,01,02,39,9.60
2007,07,01,02,40,9.60
2007,07,01,02,41,9.60
2007,07,01,02,42,9.50
2007,07,01,02,43,9.50
2007,07,01,02,44,9.50
2007,07,01,02,45,9.50
2007,07,01,02,46,9.60
2007,07,01,02,47,9.60
2007,07,01,02,48,9.60
2007,07,01,02,49,9.60
2007,07,01,02,50,9.60
2007,07,01,02,51,9.60
2007,07,01,02,52,9.60
2007,07,01,02,53,9.60
2007,07,01,02,54,9.50
2007,07,01,02,55,9.60
2007,07,01,02,56,9.50
2007,07,01,02,57,9.50
2007,07,01,02,58,9.50
2007,07,01,02,59,9.50
2007,07,01,03,00,9.60
2007,07,01,03,01,9.60
2007,07,01,03,02,9.60
2007,07,01,03,03,9.60
2007,07,01,03,04,9.60
2007,07,01,03,05,9.60
2007,07,01,03,06,9.60
2007,07,01,03,07,9.60
2007,07,01,03,08,9.60
2007,07,01,03,09,9.60
2007,07,01,03,10,9.60
2007,07,01,03,11,9.60
2007,07,01,03,12,9.70
2007,07,01,03,13,9.70
2007,07,01,03,14,9.70
2007,07,01,03,15,9.80
2007,07,01,03,16,9.80
2007,07,01,03,17,9.90
2007,07,01,03,18,9.90
2007,07,01,03,19,9.90
2007,07,01,03,20,10.00
2007,07,01,03,21,10.10
2007,07,01,03,22,10.20
2007,07,01,03,23,10.20
2007,07,01,03,24,10.20
2007,07,01,03,25,10.20
2007,07,01,03,26,10.20
2007,07,01,03,27,10.20
2007,07,01,03,28,10.20
2007,07,01,03,29,10.20
2007,07,01,03,30,10.20
2007,07,01,03,31,10.20
2007,07,01,03,32,10.30
2007,07,01,03,33,10.30
2007,07,01,03,34,10.30
2007,07,01,03,35,10.30
2007,07,01,03,36,10.30
2007,07,01,03,37,10.30
2007,07,01,03,38,10.30
2007,07,01,03,39,10.30
2007,07,01,03,40,10.30
2007,07,01,03,41,10.30
2007,07,01,03,42,10.30
2007,07,01,03,43,10.30
2007,07,01,03,44,10.30
2007,07,01,03,45,10.30
2007,07,01,03,46,10.30
2007,07,01,03,47,10.30
2007,07,01,03,48,10.30
2007,07,01,03,49,10.40
2007,07,01,03,50,10.40
2007,07,01,03,51,10.40
2007,07,01,03,52,10.40
2007,07,01,03,53,10.50
2007,07,01,03,54,10.40
2007,07,01,03,55,10.50
2007,07,01,03,56,10.50
2007,07,01,03,57,10.50
2007,07,01,03,58,10.50
2007,07,01,03,59,10.50
2007,07,01,04,00,10.50
2007,07,01,04,01,10.60
2007,07,01,04,02,10.60
2007,07,01,04,03,10.50
2007,07,01,04,04,10.50
2007,07,01,04,05,10.50
2007,07,01,04,06,10.50
2007,07,01,04,07,10.40
2007,07,01,04,08,10.40
2007,07,01,04,09,10.40
2007,07,01,04,10,10.40
2007,07,01,04,11,10.30
2007,07,01,04,12,10.30
2007,07,01,04,13,10.30
2007,07,01,04,14,10.30
2007,07,01,04,15,10.30
2007,07,01,04,16,10.30
2007,07,01,04,17,10.20
2007,07,01,04,18,10.20
2007,07,01,04,19,10.20
2007,07,01,04,20,10.20
2007,07,01,04,21,10.20
2007,07,01,04,22,10.20
2007,07,01,04,23,10.20
2007,07,01,04,24,10.20
2007,07,01,04,25,10.20
2007,07,01,04,26,10.20
2007,07,01,04,27,10.20
2007,07,01,04,28,10.20
2007,07,01,04,29,10.20
2007,07,01,04,30,10.20
2007,07,01,04,31,10.20
2007,07,01,04,32,10.20
2007,07,01,04,33,10.20
2007,07,01,04,34,10.20
2007,07,01,04,35,10.20
2007,07,01,04,36,10.20
2007,07,01,04,37,10.20
2007,07,01,04,38,10.30
2007,07,01,04,39,10.30
2007,07,01,04,40,10.30
2007,07,01,04,41,10.30
2007,07,01,04,42,10.30
2007,07,01,04,43,10.30
2007,07,01,04,44,10.30
2007,07,01,04,45,10.30
2007,07,01,04,46,10.30
2007,07,01,04,47,10.30
2007,07,01,04,48,10.30
2007,07,01,04,49,10.30
2007,07,01,04,50,10.30
2007,07,01,04,51,10.30
2007,07,01,04,52,10.30
2007,07,01,04,53,10.40
2007,07,01,04,54,10.40
2007,07,01,04,55,10.40
2007,07,01,04,56,10.40
2007,07,01,04,57,10.40
2007,07,01,04,58,10.40
2007,07,01,04,59,10.40
2007,07,01,05,00,10.40
2007,07,01,05,01,10.40
2007,07,01,05,02,10.40
2007,07,01,05,03,10.40
2007,07,01,05,04,10.40
2007,07,01,05,05,10.40
2007,07,01,05,06,10.40
2007,07,01,05,07,10.40
2007,07,01,05,08,10.30
2007,07,01,05,09,10.30
2007,07,01,05,10,10.30
2007,07,01,05,11,10.30
2007,07,01,05,12,10.20
2007,07,01,05,13,10.20
2007,07,01,05,14,10.20
2007,07,01,05,15,10.20
2007,07,01,05,16,10.20
2007,07,01,05,17,10.20
2007,07,01,05,18,10.20
2007,07,01,05,19,10.20
2007,07,01,05,20,10.20
2007,07,01,05,21,10.20
2007,07,01,05,22,10.20
2007,07,01,05,23,10.20
2007,07,01,05,24,10.20
2007,07,01,05,25,10.20
2007,07,01,05,26,10.20
2007,07,01,05,27,10.20
2007,07,01,05,28,10.20
2007,07,01,05,29,10.10
2007,07,01,05,30,10.10
2007,07,01,05,31,10.10
2007,07,01,05,32,10.10
2007,07,01,05,33,10.20
2007,07,01,05,34,10.20
2007,07,01,05,35,10.20
2007,07,01,05,36,10.20
2007,07,01,05,37,10.20
2007,07,01,05,38,10.20
2007,07,01,05,39,10.20
2007,07,01,05,40,10.20
2007,07,01,05,41,10.20
2007,07,01,05,42,10.20
2007,07,01,05,43,10.30
2007,07,01,05,44,10.30
2007,07,01,05,45,10.30
2007,07,01,05,46,10.30
2007,07,01,05,47,10.40
2007,07,01,05,48,10.40
2007,07,01,05,49,10.40
2007,07,01,05,50,10.40
2007,07,01,05,51,10.40
2007,07,01,05,52,10.40
2007,07,01,05,53,10.40
2007,07,01,05,54,10.40
2007,07,01,05,55,10.40
2007,07,01,05,56,10.50
2007,07,01,05,57,10.50
2007,07,01,05,58,10.50
2007,07,01,05,59,10.50
2007,07,01,06,00,10.50
2007,07,01,06,01,10.60
2007,07,01,06,02,10.50
2007,07,01,06,03,10.50
2007,07,01,06,04,10.60
2007,07,01,06,05,10.60
2007,07,01,06,06,10.60
2007,07,01,06,07,10.60
2007,07,01,06,08,10.60
2007,07,01,06,09,10.60
2007,07,01,06,10,10.60
2007,07,01,06,11,10.60
2007,07,01,06,12,10.60
2007,07,01,06,13,10.60
2007,07,01,06,14,10.60
2007,07,01,06,15,10.60
2007,07,01,06,16,10.60
2007,07,01,06,17,10.60
2007,07,01,06,18,10.60
2007,07,01,06,19,10.60
2007,07,01,06,20,10.60
2007,07,01,06,21,10.60
2007,07,01,06,22,10.60
2007,07,01,06,23,10.60
2007,07,01,06,24,10.60
2007,07,01,06,25,10.60
2007,07,01,06,26,10.60
2007,07,01,06,27,10.60
2007,07,01,06,28,10.60
2007,07,01,06,29,10.70
2007,07,01,06,30,10.70
2007,07,01,06,31,10.70
2007,07,01,06,32,10.70
2007,07,01,06,33,10.70
2007,07,01,06,34,10.70
2007,07,01,06,35,10.70
2007,07,01,06,36,10.70
2007,07,01,06,37,10.70
2007,07,01,06,38,10.80
2007,07,01,06,39,10.80
2007,07,01,06,40,10.80
2007,07,01,06,41,10.80
2007,07,01,06,42,10.80
2007,07,01,06,43,10.80
2007,07,01,06,44,10.80
2007,07,01,06,45,10.80
2007,07,01,06,46,10.80
2007,07,01,06,47,10.80
2007,07,01,06,48,10.90
2007,07,01,06,49,10.90
2007,07,01,06,50,11.00
2007,07,01,06,51,11.00
2007,07,01,06,52,11.10
2007,07,01,06,53,11.10
2007,07,01,06,54,11.10
2007,07,01,06,55,11.10
2007,07,01,06,56,11.10
2007,07,01,06,57,11.10
2007,07,01,06,58,11.10
2007,07,01,06,59,11.10
2007,07,01,07,00,11.10
2007,07,01,07,01,11.10
2007,07,01,07,02,11.10
2007,07,01,07,03,11.10
2007,07,01,07,04,11.10
2007,07,01,07,05,11.10
2007,07,01,07,06,11.20
2007,07,01,07,07,11.20
2007,07,01,07,08,11.20
2007,07,01,07,09,11.20
2007,07,01,07,10,11.30
2007,07,01,07,11,11.30
2007,07,01,07,12,11.30
2007,07,01,07,13,11.30
2007,07,01,07,14,11.40
2007,07,01,07,15,11.40
2007,07,01,07,16,11.40
2007,07,01,07,17,11.40
2007,07,01,07,18,11.50
2007,07,01,07,19,11.60
2007,07,01,07,20,11.60
2007,07,01,07,21,11.60
2007,07,01,07,22,11.70
2007,07,01,07,23,11.70
2007,07,01,07,24,11.70
2007,07,01,07,25,11.70
2007,07,01,07,26,11.80
2007,07,01,07,27,11.80
2007,07,01,07,28,11.90
2007,07,01,07,29,11.90
2007,07,01,07,30,11.90
2007,07,01,07,31,12.00
2007,07,01,07,32,12.00
2007,07,01,07,33,12.10
2007,07,01,07,34,12.10
2007,07,01,07,35,12.10
2007,07,01,07,36,12.10
2007,07,01,07,37,12.20
2007,07,01,07,38,12.20
2007,07,01,07,39,12.20
2007,07,01,07,40,12.20
2007,07,01,07,41,12.30
2007,07,01,07,42,12.30
2007,07,01,07,43,12.30
2007,07,01,07,44,12.30
2007,07,01,07,45,12.40
2007,07,01,07,46,12.40
2007,07,01,07,47,12.50
2007,07,01,07,48,12.50
2007,07,01,07,49,12.60
2007,07,01,07,50,12.60
2007,07,01,07,51,12.70
2007,07,01,07,52,12.70
2007,07,01,07,53,12.80
2007,07,01,07,54,12.90
2007,07,01,07,55,12.90
2007,07,01,07,56,13.00
2007,07,01,07,57,13.10
2007,07,01,07,58,13.20
2007,07,01,07,59,13.30
2007,07,01,08,00,13.40
2007,07,01,08,01,13.50
2007,07,01,08,02,13.60
2007,07,01,08,03,13.70
2007,07,01,08,04,13.70
2007,07,01,08,05,13.80
2007,07,01,08,06,13.80
2007,07,01,08,07,13.80
2007,07,01,08,08,13.80
2007,07,01,08,09,13.80
2007,07,01,08,10,13.80
2007,07,01,08,11,13.80
2007,07,01,08,12,13.90
2007,07,01,08,13,13.90
2007,07,01,08,14,13.90
2007,07,01,08,15,13.90
2007,07,01,08,16,13.90
2007,07,01,08,17,13.90
2007,07,01,08,18,13.90
2007,07,01,08,19,13.90
2007,07,01,08,20,13.90
2007,07,01,08,21,14.00
2007,07,01,08,22,14.00
2007,07,01,08,23,14.00
2007,07,01,08,24,14.00
2007,07,01,08,25,14.00
2007,07,01,08,26,13.90
2007,07,01,08,27,13.90
2007,07,01,08,28,13.90
2007,07,01,08,29,13.90
2007,07,01,08,30,13.90
2007,07,01,08,31,13.90
2007,07,01,08,32,13.90
2007,07,01,08,33,13.90
2007,07,01,08,34,13.90
2007,07,01,08,35,13.90
2007,07,01,08,36,13.90
2007,07,01,08,37,13.90
2007,07,01,08,38,13.90
2007,07,01,08,39,14.00
2007,07,01,08,40,14.10
2007,07,01,08,41,14.20
2007,07,01,08,42,14.30
2007,07,01,08,43,14.40
2007,07,01,08,44,14.40
2007,07,01,08,45,14.40
2007,07,01,08,46,14.50
2007,07,01,08,47,14.50
2007,07,01,08,48,14.60
2007,07,01,08,49,14.60
2007,07,01,08,50,14.70
2007,07,01,08,51,14.80
2007,07,01,08,52,14.80
2007,07,01,08,53,14.90
2007,07,01,08,54,15.00
2007,07,01,08,55,15.00
2007,07,01,08,56,15.00
2007,07,01,08,57,15.00
2007,07,01,08,58,15.00
2007,07,01,08,59,15.00
2007,07,01,09,00,15.00
2007,07,01,09,01,15.00
2007,07,01,09,02,15.00
2007,07,01,09,03,15.00
2007,07,01,09,04,15.00
2007,07,01,09,05,15.00
2007,07,01,09,06,15.00
2007,07,01,09,07,15.00
2007,07,01,09,08,15.00
2007,07,01,09,09,15.00
2007,07,01,09,10,15.00
2007,07,01,09,11,15.00
2007,07,01,09,12,15.00
2007,07,01,09,13,15.00
2007,07,01,09,14,15.00
2007,07,01,09,15,15.00
2007,07,01,09,16,14.90
2007,07,01,09,17,14.90
2007,07,01,09,18,14.90
2007,07,01,09,19,15.00
2007,07,01,09,20,15.00
2007,07,01,09,21,15.00
2007,07,01,09,22,15.10
2007,07,01,09,23,15.20
2007,07,01,09,24,15.30
2007,07,01,09,25,15.20
2007,07,01,09,26,15.10
2007,07,01,09,27,15.00
2007,07,01,09,28,15.00
2007,07,01,09,29,15.00
2007,07,01,09,30,15.00
2007,07,01,09,31,15.00
2007,07,01,09,32,15.00
2007,07,01,09,33,15.00
2007,07,01,09,34,15.00
2007,07,01,09,35,15.00
2007,07,01,09,36,15.00
2007,07,01,09,37,15.00
2007,07,01,09,38,15.00
2007,07,01,09,39,15.00
2007,07,01,09,40,15.20
2007,07,01,09,41,15.40
2007,07,01,09,42,15.50
2007,07,01,09,43,15.70
2007,07,01,09,44,15.80
2007,07,01,09,45,15.90
2007,07,01,09,46,16.00
2007,07,01,09,47,16.20
2007,07,01,09,48,16.30
2007,07,01,09,49,16.40
2007,07,01,09,50,16.40
2007,07,01,09,51,16.30
2007,07,01,09,52,16.10
2007,07,01,09,53,16.10
2007,07,01,09,54,16.10
2007,07,01,09,55,16.00
2007,07,01,09,56,15.90
2007,07,01,09,57,15.90
2007,07,01,09,58,15.90
2007,07,01,09,59,15.80
2007,07,01,10,00,15.60
2007,07,01,10,01,15.50
2007,07,01,10,02,15.40
2007,07,01,10,03,15.40
2007,07,01,10,04,15.30
2007,07,01,10,05,15.30
2007,07,01,10,06,15.30
2007,07,01,10,07,15.30
2007,07,01,10,08,15.30
2007,07,01,10,09,15.40
2007,07,01,10,10,15.40
2007,07,01,10,11,15.50
2007,07,01,10,12,15.50
2007,07,01,10,13,15.60
2007,07,01,10,14,15.60
2007,07,01,10,15,15.50
2007,07,01,10,16,15.30
2007,07,01,10,17,15.30
2007,07,01,10,18,15.30
2007,07,01,10,19,15.30
2007,07,01,10,20,15.30
2007,07,01,10,21,15.20
2007,07,01,10,22,15.10
2007,07,01,10,23,15.00
2007,07,01,10,24,15.00
2007,07,01,10,25,15.10
2007,07,01,10,26,15.10
2007,07,01,10,27,15.10
2007,07,01,10,28,15.20
2007,07,01,10,29,15.20
2007,07,01,10,30,15.20
2007,07,01,10,31,15.20
2007,07,01,10,32,15.20
2007,07,01,10,33,15.20
2007,07,01,10,34,15.20
2007,07,01,10,35,15.20
2007,07,01,10,36,15.10
2007,07,01,10,37,15.10
2007,07,01,10,38,15.20
2007,07,01,10,39,15.20
2007,07,01,10,40,15.20
2007,07,01,10,41,15.20
2007,07,01,10,42,15.10
2007,07,01,10,43,15.00
2007,07,01,10,44,15.00
2007,07,01,10,45,15.00
2007,07,01,10,46,15.00
2007,07,01,10,47,15.00
2007,07,01,10,48,15.00
2007,07,01,10,49,15.00
2007,07,01,10,50,15.00
2007,07,01,10,51,15.00
2007,07,01,10,52,15.00
2007,07,01,10,53,15.20
2007,07,01,10,54,15.30
2007,07,01,10,55,15.40
2007,07,01,10,56,15.40
2007,07,01,10,57,15.60
2007,07,01,10,58,15.70
2007,07,01,10,59,15.90
2007,07,01,11,00,15.90
2007,07,01,11,01,16.00
2007,07,01,11,02,15.90
2007,07,01,11,03,15.80
2007,07,01,11,04,15.70
2007,07,01,11,05,15.50
2007,07,01,11,06,15.30
2007,07,01,11,07,15.30
2007,07,01,11,08,15.20
2007,07,01,11,09,15.00
2007,07,01,11,10,15.00
2007,07,01,11,11,15.00
2007,07,01,11,12,15.00
2007,07,01,11,13,15.00
2007,07,01,11,14,15.00
2007,07,01,11,15,15.10
2007,07,01,11,16,15.30
2007,07,01,11,17,15.40
2007,07,01,11,18,15.50
2007,07,01,11,19,15.70
2007,07,01,11,20,15.80
2007,07,01,11,21,15.90
2007,07,01,11,22,16.20
2007,07,01,11,23,16.40
2007,07,01,11,24,16.50
2007,07,01,11,25,16.70
2007,07,01,11,26,16.70
2007,07,01,11,27,16.70
2007,07,01,11,28,16.60
2007,07,01,11,29,16.60
2007,07,01,11,30,16.50
2007,07,01,11,31,16.40
2007,07,01,11,32,16.40
2007,07,01,11,33,16.30
2007,07,01,11,34,16.10
2007,07,01,11,35,16.00
2007,07,01,11,36,15.90
2007,07,01,11,37,15.80
2007,07,01,11,38,15.80
2007,07,01,11,39,15.90
2007,07,01,11,40,16.00
2007,07,01,11,41,16.10
2007,07,01,11,42,16.20
2007,07,01,11,43,16.20
2007,07,01,11,44,16.20
2007,07,01,11,45,16.20
2007,07,01,11,46,16.20
2007,07,01,11,47,16.20
2007,07,01,11,48,16.10
2007,07,01,11,49,16.10
2007,07,01,11,50,16.10
2007,07,01,11,51,16.10
2007,07,01,11,52,16.10
2007,07,01,11,53,16.20
2007,07,01,11,54,16.30
2007,07,01,11,55,16.30
2007,07,01,11,56,16.40
2007,07,01,11,57,16.40
2007,07,01,11,58,16.60
2007,07,01,11,59,16.70
2007,07,01,12,00,16.80
2007,07,01,12,01,16.70
2007,07,01,12,02,16.70
2007,07,01,12,03,16.60
2007,07,01,12,04,16.60
2007,07,01,12,05,16.60
2007,07,01,12,06,16.70
2007,07,01,12,07,16.70
2007,07,01,12,08,16.70
2007,07,01,12,09,16.60
2007,07,01,12,10,16.40
2007,07,01,12,11,16.20
2007,07,01,12,12,16.20
2007,07,01,12,13,16.20
2007,07,01,12,14,16.30
2007,07,01,12,15,16.20
2007,07,01,12,16,16.10
2007,07,01,12,17,16.10
2007,07,01,12,18,16.10
2007,07,01,12,19,16.00
2007,07,01,12,20,16.10
2007,07,01,12,21,16.10
2007,07,01,12,22,16.20
2007,07,01,12,23,16.20
2007,07,01,12,24,16.10
2007,07,01,12,25,16.00
2007,07,01,12,26,15.90
2007,07,01,12,27,16.00
2007,07,01,12,28,16.00
2007,07,01,12,29,16.00
2007,07,01,12,30,15.90
2007,07,01,12,31,16.00
2007,07,01,12,32,16.00
2007,07,01,12,33,16.00
2007,07,01,12,34,16.00
2007,07,01,12,35,16.00
2007,07,01,12,36,16.10
2007,07,01,12,37,16.20
2007,07,01,12,38,16.30
2007,07,01,12,39,16.40
2007,07,01,12,40,16.40
2007,07,01,12,41,16.40
2007,07,01,12,42,16.60
2007,07,01,12,43,16.60
2007,07,01,12,44,16.60
2007,07,01,12,45,16.70
2007,07,01,12,46,16.70
2007,07,01,12,47,16.80
2007,07,01,12,48,16.80
2007,07,01,12,49,16.90
2007,07,01,12,50,17.00
2007,07,01,12,51,17.10
2007,07,01,12,52,17.20
2007,07,01,12,53,17.30
2007,07,01,12,54,17.10
2007,07,01,12,55,17.10
2007,07,01,12,56,17.00
2007,07,01,12,57,17.00
2007,07,01,12,58,17.00
2007,07,01,12,59,16.90
2007,07,01,13,00,16.90
2007,07,01,13,01,16.90
2007,07,01,13,02,16.90
2007,07,01,13,03,17.00
2007,07,01,13,04,17.00
2007,07,01,13,05,17.00
2007,07,01,13,06,17.10
2007,07,01,13,07,17.10
2007,07,01,13,08,17.10
2007,07,01,13,09,17.10
2007,07,01,13,10,17.20
2007,07,01,13,11,17.20
2007,07,01,13,12,17.20
2007,07,01,13,13,17.30
2007,07,01,13,14,17.40
2007,07,01,13,15,17.40
2007,07,01,13,16,17.30
2007,07,01,13,17,17.30
2007,07,01,13,18,17.30
2007,07,01,13,19,17.30
2007,07,01,13,20,17.30
2007,07,01,13,21,17.40
2007,07,01,13,22,17.40
2007,07,01,13,23,17.40
2007,07,01,13,24,17.40
2007,07,01,13,25,17.50
2007,07,01,13,26,17.50
2007,07,01,13,27,17.50
2007,07,01,13,28,17.40
2007,07,01,13,29,17.40
2007,07,01,13,30,17.40
2007,07,01,13,31,17.50
2007,07,01,13,32,17.50
2007,07,01,13,33,17.50
2007,07,01,13,34,17.40
2007,07,01,13,35,17.50
2007,07,01,13,36,17.50
2007,07,01,13,37,17.40
2007,07,01,13,38,17.50
2007,07,01,13,39,17.60
2007,07,01,13,40,17.50
2007,07,01,13,41,17.30
2007,07,01,13,42,17.30
2007,07,01,13,43,17.20
2007,07,01,13,44,17.20
2007,07,01,13,45,17.20
2007,07,01,13,46,17.30
2007,07,01,13,47,17.30
2007,07,01,13,48,17.30
2007,07,01,13,49,17.20
2007,07,01,13,50,17.10
2007,07,01,13,51,17.10
2007,07,01,13,52,17.00
2007,07,01,13,53,17.00
2007,07,01,13,54,17.10
2007,07,01,13,55,17.10
2007,07,01,13,56,17.30
2007,07,01,13,57,17.40
2007,07,01,13,58,17.70
2007,07,01,13,59,17.80
2007,07,01,14,00,17.80
2007,07,01,14,01,17.80
2007,07,01,14,02,17.80
2007,07,01,14,03,17.80
2007,07,01,14,04,17.90
2007,07,01,14,05,18.00
2007,07,01,14,06,18.10
2007,07,01,14,07,18.00
2007,07,01,14,08,17.90
2007,07,01,14,09,17.80
2007,07,01,14,10,17.80
2007,07,01,14,11,17.80
2007,07,01,14,12,17.80
2007,07,01,14,13,17.80
2007,07,01,14,14,17.90
2007,07,01,14,15,17.90
2007,07,01,14,16,17.90
2007,07,01,14,17,18.00
2007,07,01,14,18,18.00
2007,07,01,14,19,18.10
2007,07,01,14,20,18.10
2007,07,01,14,21,18.00
2007,07,01,14,22,18.00
2007,07,01,14,23,18.00
2007,07,01,14,24,18.00
2007,07,01,14,25,18.00
2007,07,01,14,26,18.10
2007,07,01,14,27,18.20
2007,07,01,14,28,18.30
2007,07,01,14,29,18.30
2007,07,01,14,30,18.20
2007,07,01,14,31,18.00
2007,07,01,14,32,17.90
2007,07,01,14,33,17.80
2007,07,01,14,34,17.70
2007,07,01,14,35,17.60
2007,07,01,14,36,17.60
2007,07,01,14,37,17.60
2007,07,01,14,38,17.60
2007,07,01,14,39,17.60
2007,07,01,14,40,17.60
2007,07,01,14,41,17.60
2007,07,01,14,42,17.50
2007,07,01,14,43,17.50
2007,07,01,14,44,17.50
2007,07,01,14,45,17.40
2007,07,01,14,46,17.50
2007,07,01,14,47,17.50
2007,07,01,14,48,17.50
2007,07,01,14,49,17.50
2007,07,01,14,50,17.60
2007,07,01,14,51,17.60
2007,07,01,14,52,17.60
2007,07,01,14,53,17.70
2007,07,01,14,54,17.70
2007,07,01,14,55,17.70
2007,07,01,14,56,17.70
2007,07,01,14,57,17.80
2007,07,01,14,58,17.80
2007,07,01,14,59,17.80
2007,07,01,15,00,17.90
2007,07,01,15,01,18.00
2007,07,01,15,02,18.10
2007,07,01,15,03,18.20
2007,07,01,15,04,18.40
2007,07,01,15,05,18.60
2007,07,01,15,06,18.70
2007,07,01,15,07,19.00
2007,07,01,15,08,19.20
2007,07,01,15,09,19.30
2007,07,01,15,10,19.30
2007,07,01,15,11,19.30
2007,07,01,15,12,19.20
2007,07,01,15,13,19.10
2007,07,01,15,14,19.00
2007,07,01,15,15,18.90
2007,07,01,15,16,18.90
2007,07,01,15,17,18.70
2007,07,01,15,18,18.70
2007,07,01,15,19,18.60
2007,07,01,15,20,18.60
2007,07,01,15,21,18.60
2007,07,01,15,22,18.60
2007,07,01,15,23,18.60
2007,07,01,15,24,18.40
2007,07,01,15,25,18.30
2007,07,01,15,26,18.30
2007,07,01,15,27,18.30
2007,07,01,15,28,18.20
2007,07,01,15,29,18.20
2007,07,01,15,30,18.10
2007,07,01,15,31,18.10
2007,07,01,15,32,18.10
2007,07,01,15,33,18.10
2007,07,01,15,34,18.10
2007,07,01,15,35,18.10
2007,07,01,15,36,18.10
2007,07,01,15,37,18.10
2007,07,01,15,38,18.10
2007,07,01,15,39,18.20
2007,07,01,15,40,18.20
2007,07,01,15,41,18.30
2007,07,01,15,42,18.30
2007,07,01,15,43,18.40
2007,07,01,15,44,18.50
2007,07,01,15,45,18.50
2007,07,01,15,46,18.50
2007,07,01,15,47,18.50
2007,07,01,15,48,18.60
2007,07,01,15,49,18.60
2007,07,01,15,50,18.60
2007,07,01,15,51,18.70
2007,07,01,15,52,18.70
2007,07,01,15,53,18.60
2007,07,01,15,54,18.60
2007,07,01,15,55,18.70
2007,07,01,15,56,18.70
2007,07,01,15,57,18.60
2007,07,01,15,58,18.50
2007,07,01,15,59,18.50
2007,07,01,16,00,18.40
2007,07,01,16,01,18.40
2007,07,01,16,02,18.30
2007,07,01,16,03,18.30
2007,07,01,16,04,18.30
2007,07,01,16,05,18.30
2007,07,01,16,06,18.30
2007,07,01,16,07,18.30
2007,07,01,16,08,18.30
2007,07,01,16,09,18.20
2007,07,01,16,10,18.30
2007,07,01,16,11,18.20
2007,07,01,16,12,18.20
2007,07,01,16,13,18.20
2007,07,01,16,14,18.30
2007,07,01,16,15,18.30
2007,07,01,16,16,18.40
2007,07,01,16,17,18.40
2007,07,01,16,18,18.50
2007,07,01,16,19,18.50
2007,07,01,16,20,18.60
2007,07,01,16,21,18.70
2007,07,01,16,22,18.80
2007,07,01,16,23,18.80
2007,07,01,16,24,19.00
2007,07,01,16,25,19.20
2007,07,01,16,26,19.30
2007,07,01,16,27,19.30
2007,07,01,16,28,19.40
2007,07,01,16,29,19.50
2007,07,01,16,30,19.50
2007,07,01,16,31,19.60
2007,07,01,16,32,19.70
2007,07,01,16,33,19.70
2007,07,01,16,34,19.70
2007,07,01,16,35,19.80
2007,07,01,16,36,19.80
2007,07,01,16,37,19.80
2007,07,01,16,38,19.90
2007,07,01,16,39,19.90
2007,07,01,16,40,19.90
2007,07,01,16,41,19.90
2007,07,01,16,42,19.90
2007,07,01,16,43,19.90
2007,07,01,16,44,19.90
2007,07,01,16,45,19.90
2007,07,01,16,46,19.90
2007,07,01,16,47,20.00
2007,07,01,16,48,20.00
2007,07,01,16,49,20.00
2007,07,01,16,50,19.90
2007,07,01,16,51,19.90
2007,07,01,16,52,19.80
2007,07,01,16,53,19.80
2007,07,01,16,54,19.70
2007,07,01,16,55,19.70
2007,07,01,16,56,19.60
2007,07,01,16,57,19.60
2007,07,01,16,58,19.60
2007,07,01,16,59,19.60
2007,07,01,17,00,19.70
2007,07,01,17,01,19.70
2007,07,01,17,02,19.70
2007,07,01,17,03,19.80
2007,07,01,17,04,19.80
2007,07,01,17,05,19.80
2007,07,01,17,06,19.80
2007,07,01,17,07,19.90
2007,07,01,17,08,19.90
2007,07,01,17,09,19.90
2007,07,01,17,10,19.90
2007,07,01,17,11,19.90
2007,07,01,17,12,20.00
2007,07,01,17,13,20.00
2007,07,01,17,14,20.00
2007,07,01,17,15,20.00
2007,07,01,17,16,20.10
2007,07,01,17,17,20.10
2007,07,01,17,18,20.10
2007,07,01,17,19,20.00
2007,07,01,17,20,20.00
2007,07,01,17,21,20.00
2007,07,01,17,22,20.00
2007,07,01,17,23,19.90